Погода в Рочестере

США     43°10′59″N   77°37′16″W
темп.,
°C
ветер,
м/с
пор.,
м/с
влажн.,
%
обл.,
%
осадки,
мм/ч
давл.,
гПа
погр.,
м
19 января, вт
вт1901:00−1сз458894 1.0 1015424
04:00−1юз2395100 0.7 1015256
07:000зюз6108498 1.0 1016757
10:000з8117699 0.0 1016976
13:00+1з8116682 0.1 10151413
16:00+1з9136595 0.3 10171613
19:00−1з9136879 0.3 10171233
22:00−1з71174100 0.0 10161144
20 января, ср
ср2001:00−1з4583100 0.1 1013609
04:00−2з5890100 1.0 1012657
07:00−2зсз81087100 1.8 1014902
10:00−3сз101266100 0.6 10161305
13:00−4зсз9126677 0.7 10191399
16:00−4зсз71066100 0.0 10191380
19:00−5юз3567100 0.1 1017775
22:00−5ю5779100 0.0 1015542
21 января, чт
чт2101:00−3ююз81374100 0.0 1010845
04:00−2юз81475100 0.0 10071085
07:00−1юз81579100 0.1 1004897
10:000юз8138275 0.1 1002854
13:00+2зюз8148688 0.3 10001333
16:00+2зюз91581100 0.2 9991483
19:00+1зюз7158198 0.3 10001125
22:00+1з81381100 0.3 10011134
22 января, пт
пт2201:000з9138699 0.4 1002887
04:00−1з8128295 0.3 1003833
07:00−1з9127191 0.6 10051232
10:00−1з9127178 0.0 10071155
13:00−1з10127489 0.1 10081261
16:00−2з81177100 0.3 10101273
19:00−3зсз101273100 0.9 10141374
22:00−4зсз101369100 0.1 10161561
23 января, сб
сб2301:00−6сз111374100 0.4 10181381
04:00−7сз111477100 0.1 10201333
07:00−8сз111379100 0.1 10231168
10:00−8сз101277100 0.1 10261033
13:00−7зсз91075100 0.1 1027957
16:00−6сз8971100 0.0 1027970
19:00−6сз786596 0.0 1029939
22:00−6сз67665 0.0 1030845